Hourly Data Report for October 06, 2017

All times are specified in Local Standard Time (LST). Add 1 hour to adjust for Daylight Saving Time where and when it is observed.

GILLAM A
MANITOBA

56°21'28.000" N
94°42'39.000" W
145.10 m
5061022
71912
YGX

Download Data

Hourly Data (October 2017)
Hourly Data Report for October 6, 2017
Temp Definition
°C
Dew Point Temp Definition
°C
Rel Hum Definition
%
Wind Dir Definition
10's deg

Wind Spd Definition
km/h
Visibility Definition
km
Stn Press Definition
kPa
Hmdx Definition


Wind Chill Definition


Weather Definition


TIME
00:00 Legend Double Dagger 0.1 -3.2 79 24 13 24.1 98.80     Clear
01:00 Legend Double Dagger -0.2 -3.2 80 24 12 24.1 98.73   -4 LegendNANA
02:00 Legend Double Dagger -0.3 -3.1 82 24 11 24.1 98.70   -4 LegendNANA
03:00 Legend Double Dagger -1.9 -3.8 87 20 8 24.1 98.62   -5 Clear
04:00 Legend Double Dagger -1.6 -3.1 90 20 9 24.1 98.55   -5 LegendNANA
05:00 Legend Double Dagger -1.5 -2.5 93 20 5 24.1 98.50   -3 LegendNANA
06:00 Legend Double Dagger -0.3 -1.6 91 17 5 24.1 98.43   -2 Mostly Cloudy
07:00 Legend Double Dagger 0.2 -1.1 91 13 6 24.1 98.33     LegendNANA
08:00 Legend Double Dagger 1.1 -0.3 90 14 6 24.1 98.28     LegendNANA
09:00 Legend Double Dagger 1.8 1.0 95 11 8 6.4 98.18     Rain
10:00 Legend Double Dagger 3.4 2.7 96 10 8 24.1 98.07     Rain
11:00 Legend Double Dagger 6.1 4.6 90 14 7 24.1 97.99     LegendNANA
12:00 Legend Double Dagger 8.3 5.9 85 15 9 24.1 97.90     Mostly Cloudy
13:00 Legend Double Dagger 10.0 6.2 77 18 10 24.1 97.82     LegendNANA
14:00 Legend Double Dagger 11.2 6.5 72 20 11 24.1 97.76     LegendNANA
15:00 Legend Double Dagger 11.4 6.8 73 13 7 24.1 97.72     Cloudy
16:00 Legend Double Dagger 10.5 6.5 76 8 10 24.1 97.68     LegendNANA
17:00 Legend Double Dagger 6.5 3.5 81 7 9 24.1 97.70     LegendNANA
18:00 Legend Double Dagger 4.5 2.4 86 7 16 24.1 97.69     Cloudy
19:00 Legend Double Dagger 3.2 1.6 89 8 13 24.1 97.69     LegendNANA
20:00 Legend Double Dagger 3.0 1.5 90 7 9 24.1 97.64     LegendNANA
21:00 Legend Double Dagger 3.1 2.5 96 9 14 6.4 97.55     Fog
22:00 Legend Double Dagger 2.9 2.6 97 9 9 0.2 97.47     Fog
23:00 Legend Double Dagger 3.2 2.9 98 11 9 0.2 97.40     Fog

Notes on Data Quality.

Legend

  • E = Estimated
  • M = Missing
  • NA = Not Available
  • ‡ = Partner data that is not subject to review by the National Climate Archives
Date modified: